San Jose, CA

8:28 PM PDT on July 23, 2017 (GMT -0700)
San Jose International

Weather History for KSJC - May, 2014

Change the Weather History Date:

Tuesday, May 6, 2014

  Actual Average Record
Temperature  
Mean Temperature 61 °F 62 °F  
Max Temperature 71 °F 73 °F 99 °F (1987)
Min Temperature 50 °F 51 °F 38 °F (1896)
Degree Days  
Heating Degree Days 4 4  
Month to date heating degree days 15 27  
Since 1 July heating degree days 1853 2164  
Cooling Degree Days 0 1  
Month to date cooling degree days 14 6  
Year to date cooling degree days 42 23  
Growing Degree Days 10 (Base 50)    
Moisture  
Dew Point 43 °F    
Average Humidity 52    
Maximum Humidity 72    
Minimum Humidity 31    
Precipitation  
Precipitation 0.00 in 0.02 in 0.47 in (1961)
Month to date precipitation 0.00 0.13  
Year to date precipitation 4.76 10.03  
Since 1 July precipitation 6.32  
Sea Level Pressure  
Sea Level Pressure 29.92 in    
Wind  
Wind Speed 10 mph (NW)    
Max Wind Speed 24 mph    
Max Gust Speed 31 mph    
Visibility 10 miles    
Events      
T = Trace of Precipitation, MM = Missing Value Source: NWS Daily Summary

Daily Weather History Graph

Daily Weather History Graph

Search for Another Location

Airport or City:

Trip Planner

Search our weather history database for the weather conditions in past years. The results will help you decide how hot, cold, wet, or windy it might be!

Date:

Astronomy

May. 06, 2014 Rise Set
Actual Time 6:07 AM PDT 8:02 PM PDT
Civil Twilight 5:38 AM PDT 8:30 PM PDT
Nautical Twilight 5:04 AM PDT 9:05 PM PDT
Astronomical Twilight 4:27 AM PDT 9:42 PM PDT
Moon 12:26 PM PDT (5/6) 1:25 AM PDT (5/6)
Length of Visible Light 14h 51m
Length of Day
13h 54m
Waxing Crescent, 47% of the Moon is Illuminated
May 6
Waxing Crescent
May 6
First Quarter
May 14
Full
May 21
Last Quarter
May 28
New

Hourly Weather History & Observations

Time (PDT) Temp. Dew Point Humidity Pressure Visibility Wind Dir Wind Speed Gust Speed Precip Events Conditions
12:53 AM 53.1 °F 45.0 °F 74% 29.97 in 10.0 mi West 18.4 mph 27.6 mph N/A   Clear
4:53 AM 51.1 °F 43.0 °F 74% 29.94 in 10.0 mi West 9.2 mph - N/A   Clear
5:53 AM 51.1 °F 42.1 °F 71% 29.94 in 10.0 mi West 5.8 mph - N/A   Scattered Clouds
7:53 AM 53.1 °F 42.1 °F 66% 29.95 in 10.0 mi Calm Calm - N/A   Scattered Clouds
8:53 AM 55.9 °F 43.0 °F 62% 29.95 in 10.0 mi SW 4.6 mph - N/A   Scattered Clouds
9:53 AM 57.9 °F 43.0 °F 58% 29.94 in 10.0 mi Calm Calm - N/A   Partly Cloudy
10:53 AM 63.0 °F 42.1 °F 46% 29.93 in 10.0 mi West 6.9 mph - N/A   Partly Cloudy
11:53 AM 66.0 °F 39.0 °F 37% 29.92 in 10.0 mi WNW 11.5 mph - N/A   Partly Cloudy
12:53 PM 68.0 °F 37.0 °F 32% 29.91 in 10.0 mi NW 13.8 mph 20.7 mph N/A   Partly Cloudy
1:53 PM 69.1 °F 37.0 °F 31% 29.90 in 10.0 mi NW 18.4 mph - N/A   Partly Cloudy
2:53 PM 70.0 °F 39.9 °F 33% 29.88 in 10.0 mi NW 17.3 mph 24.2 mph N/A   Partly Cloudy
3:53 PM 70.0 °F 43.0 °F 38% 29.88 in 10.0 mi NW 23.0 mph - N/A   Partly Cloudy
4:53 PM 66.0 °F 46.0 °F 48% 29.89 in 10.0 mi NW 19.6 mph 26.5 mph N/A   Partly Cloudy
5:53 PM 64.0 °F 44.1 °F 48% 29.89 in 10.0 mi NNW 12.7 mph 21.9 mph N/A   Partly Cloudy
6:53 PM 63.0 °F 45.0 °F 52% 29.89 in 10.0 mi NNW 12.7 mph - N/A   Partly Cloudy
7:53 PM 61.0 °F 45.0 °F 56% 29.90 in 10.0 mi NW 15.0 mph - N/A   Partly Cloudy
8:53 PM 57.9 °F 46.0 °F 65% 29.91 in 10.0 mi North 6.9 mph - N/A   Clear
9:53 PM 57.0 °F 46.0 °F 67% 29.92 in 10.0 mi North 6.9 mph - N/A   Clear
10:53 PM 55.9 °F 46.0 °F 69% 29.93 in 10.0 mi North 8.1 mph - N/A   Clear
11:53 PM 55.0 °F 46.0 °F 72% 29.94 in 10.0 mi North 5.8 mph - N/A   Clear